{"data":{"norad_id":41105,"intl_designator":"2015-074A","name":"ELEKTRO-L 2","alt_names":[],"object_type":"PAYLOAD","status":"ACTIVE","operator":null,"country":"CIS","launch_date":"2015-12-11","launch_site_code":"TYMSC","launch_vehicle":null,"mission":null,"orbit_class":"UNKNOWN","rcs_meters":0.003,"size_class":null,"mass_kg":null,"dimensions":null,"purposes":["comms","earth_obs"],"wikipedia_slug":null,"has_3d_model":false,"image_url":null,"decayed_at":null,"tle_current":{"epoch":"2026-05-25T01:57:47.736000Z","epoch_age_seconds":78700,"freshness":"FRESH","line1":"1 41105U 15074A   26145.08180250 -.00000119  00000+0  00000+0 0  9990","line2":"2 41105   6.6386  70.8029 0001449 264.6302 282.1844  1.00271753 38274","mean_motion":1.00271753,"eccentricity":0.0001449,"inclination_deg":6.6386,"raan_deg":70.8029,"arg_perigee_deg":264.6302,"mean_anomaly_deg":282.1844,"bstar":0,"rev_number":3827,"period_min":1436.0973623349,"perigee_km":35780.494260994,"apogee_km":35792.713602916,"semimajor_km":42164.740931955,"source":"CELESTRAK","updated_at":"2026-05-25T13:38:13.997691Z"}}}